Location: La Fredeussais
(48.1780°N, 1.3980°W)
Time: 16:35:21
(UTC+00:00)

Cosmos 2082 Rocket - Pass Details

Date: 09 May 2021
Orbit: 834 x 852 km, 71.0° (Epoch: 15 June)

Event Time Altitude Azimuth Distance (km) Brightness Sun altitude
Rises 22:04:08 0° 332° (NNW) 3,393 7.0 -19.1°
Reaches altitude 10° 22:06:35 10° 333° (NNW) 2,455 5.9 -19.3°
Maximum altitude 22:12:13 86° 63° (ENE) 844 2.1 -19.8°
Enters shadow 22:14:26 39° 150° (SSE) 1,239 2.5 -20.0°
